Weather History for Fort Myers, FL

Change the Weather History Date:

Monday, March 11, 2013

  Actual Average Record
Temperature  
Mean Temperature 70 °F 69 °F  
Max Temperature 80 °F 80 °F 88 °F (1975)
Min Temperature 59 °F 59 °F 40 °F (1961)
Degree Days  
Heating Degree Days 0 1  
Month to date heating degree days 53 11  
Since 1 July heating degree days 169 271  
Cooling Degree Days 5 5  
Month to date cooling degree days 9 55  
Year to date cooling degree days 320 240  
Growing Degree Days 20 (Base 50)    
Moisture  
Dew Point 57 °F    
Average Humidity 67    
Maximum Humidity 90    
Minimum Humidity 42    
Precipitation  
Precipitation 0.00 in 0.10 in 2.05 in (2010)
Month to date precipitation 0.11 1.02  
Year to date precipitation 2.59 5.11  
Sea Level Pressure  
Sea Level Pressure 30.02 in    
Wind  
Wind Speed 9 mph (SE)    
Max Wind Speed 18 mph    
Max Gust Speed 26 mph    
Visibility 10 miles    
Events      
T = Trace of Precipitation, MM = Missing Value Source: NWS Daily Summary

Daily Weather History Graph

Daily Weather History Graph

Search for Another Location

Airport:

Trip Planner

Search our weather history database for the weather conditions in past years. The results will help you decide how hot, cold, wet, or windy it might be!

Date:

Astronomy

Mar. 11, 2013 Rise Set
Actual Time 7:40 AM EDT 7:34 PM EDT
Civil Twilight 7:17 AM EDT 7:57 PM EDT
Nautical Twilight 6:50 AM EDT 8:24 PM EDT
Astronomical Twilight 6:23 AM EDT 8:51 PM EDT
Moon 7:16 AM EDT (3/11) 7:39 PM EDT (3/11)
Length of Visible Light 12h 39m
Length of Day
11h 53m
Waning Crescent, 0% of the Moon is Illuminated
Mar 11
Waning Crescent
Mar 11
New
Mar 19
First Quarter
Mar 27
Full
Apr 3
Last Quarter

Hourly Weather History & Observations

Time (EDT) Temp. Heat Index Dew Point Humidity Pressure Visibility Wind Dir Wind Speed Gust Speed Precip Events Conditions
12:53 AM 63.0 °F - 55.0 °F 75% 30.10 in 10.0 mi ESE 6.9 mph - N/A   Clear
1:53 AM 62.1 °F - 55.0 °F 78% 30.10 in 10.0 mi ESE 4.6 mph - N/A   Clear
2:53 AM 61.0 °F - 55.0 °F 81% 30.07 in 10.0 mi East 4.6 mph - N/A   Clear
3:53 AM 60.1 °F - 55.0 °F 83% 30.06 in 10.0 mi East 3.5 mph - N/A   Clear
4:53 AM 60.1 °F - 55.9 °F 86% 30.04 in 10.0 mi East 4.6 mph - N/A   Scattered Clouds
5:53 AM 60.1 °F - 55.9 °F 86% 30.02 in 10.0 mi East 3.5 mph - N/A   Clear
6:53 AM 60.1 °F - 55.9 °F 86% 30.03 in 10.0 mi East 5.8 mph - N/A   Clear
7:53 AM 61.0 °F - 57.0 °F 87% 30.03 in 10.0 mi East 6.9 mph - N/A   Clear
8:53 AM 64.0 °F - 57.9 °F 80% 30.04 in 10.0 mi ESE 6.9 mph - N/A   Clear
9:53 AM 69.1 °F - 59.0 °F 70% 30.05 in 10.0 mi SE 9.2 mph - N/A   Clear
10:53 AM 73.9 °F - 57.0 °F 55% 30.04 in 10.0 mi SE 13.8 mph 25.3 mph N/A   Clear
11:53 AM 77.0 °F - 55.0 °F 47% 30.03 in 10.0 mi SE 16.1 mph 24.2 mph N/A   Partly Cloudy
12:53 PM 79.0 °F - 55.9 °F 45% 30.03 in 10.0 mi South 11.5 mph 18.4 mph N/A   Mostly Cloudy
1:53 PM 78.1 °F - 55.0 °F 45% 30.04 in 10.0 mi SW 10.4 mph 17.3 mph N/A   Overcast
2:53 PM 80.1 °F 80.1 °F 55.0 °F 42% 30.01 in 10.0 mi SSW 11.5 mph - N/A   Mostly Cloudy
3:53 PM 78.1 °F - 57.9 °F 50% 29.98 in 10.0 mi SSW 9.2 mph 17.3 mph N/A   Partly Cloudy
4:53 PM 79.0 °F - 57.0 °F 47% 29.94 in 10.0 mi SSW 10.4 mph 20.7 mph N/A   Clear
5:53 PM 78.1 °F - 57.0 °F 48% 29.94 in 10.0 mi SSW 13.8 mph 19.6 mph N/A   Clear
7:53 PM 72.0 °F - 59.0 °F 64% 29.97 in 10.0 mi SSW 9.2 mph - N/A   Scattered Clouds
8:53 PM 70.0 °F - 61.0 °F 73% 29.96 in 10.0 mi South 6.9 mph - N/A   Clear
9:53 PM 70.0 °F - 61.0 °F 73% 29.97 in 10.0 mi South 6.9 mph - N/A   Clear
10:53 PM 70.0 °F - 61.0 °F 73% 29.98 in 10.0 mi SSE 9.2 mph - N/A   Clear
11:53 PM 69.1 °F - 61.0 °F 75% 29.98 in 10.0 mi SSE 5.8 mph - N/A   Clear